Regional Weather Roundup
Issued by NWS

Home | Current Version | Previous Version | Text Only | Print | Product List | Glossary Off
Versions: 1 2 3 4 5 6 7 8 9 10 11 12 13 14 15 16 17 18 19 20 21 22 23 24 25 26 27 28 29 30 31 32 33 34 35 36 37 38 39 40 41 42 43 44 45 46 47 48 49 50

000
ASUS43 KDTX 191301
RWRMI
MICHIGAN HOURLY REGIONAL WEATHER ROUNDUP
NATIONAL WEATHER SERVICE DETROIT/PONTIAC MI
800 AM EST MON FEB 19 2018

NOTE: "FAIR" INDICATES FEW OR NO CLOUDS BELOW 12,000 FEET WITH NO
SIGNIFICANT WEATHER AND/OR OBSTRUCTION TO VISIBILITY.

MIZ047>049-052>055-059>063-066>070-074>076-081>083-191400-
SOUTHEAST LOWER MICHIGAN

CITY           SKY/WX    TMP DP  RH WIND       PRES   REMARKS
ADRIAN         CLOUDY    34  34 100 S5        29.99R FOG     WCI  30
ALMA           CLOUDY    34  32  92 CALM      29.93R FOG
ANN ARBOR      FOG       33  33 100 CALM      29.98R VSB 1
BAD AXE        CLOUDY    34  29  83 S10       29.96R WCI  26
CARO           CLOUDY    35  31  83 S8        29.95R WCI  29
DETROIT CITY   CLOUDY    36  31  82 S7        30.01R WCI  30
DETROIT        LGT RAIN  35  32  88 S6        30.00R FOG     WCI  30
FLINT          CLOUDY    37  31  78 S8        29.96R WCI  31
GROSSE ILE     CLOUDY    35  32  92 S7        30.00R WCI  29
HILLSDALE      CLOUDY    36  34  93 S9        29.97R FOG     WCI  29
HOWELL         CLOUDY    36  34  94 S8        29.95S FOG     WCI  29

CITY           SKY/WX    TMP DP  RH WIND       PRES   REMARKS
JACKSON        CLOUDY    38  37  97 S6        29.97R FOG     WCI  33
LAMBERTVILLE   CLOUDY    38  37  94 S6        29.99R WCI  34
LANSING        MIX PCPN  37  36  96 S8        29.96R FOG     WCI  31
LAPEER         CLOUDY    35  31  84 S5        29.98R WCI  31
MASON          CLOUDY    37  33  85 S5        29.96R FOG     WCI  33
MONROE         CLOUDY    36  34  93 S3        29.99R FOG
MT. CLEMENS    CLOUDY    34  34 100 SE9       29.99R WCI  27
PONTIAC        CLOUDY    34  31  88 S5        29.97R WCI  30
PORT HOPE        N/A     36  28  73 VRB6      29.93F WCI  31
PORT HURON     CLOUDY    34  30  86 S8        30.01R WCI  27
TRI CITIES     CLOUDY    37  31  78 S8        29.94R WCI  31
MIDLAND        CLOUDY    36  31  81 CALM      29.93R
TROY           CLOUDY    36  32  84 S3        30.01R
SAGINAW HB     DRIZZLE   36  32  87 S8        29.94R WCI  29
$$
MIZ043>046-050>051-056>058-064>065-071>073-077>080-191400-
SOUTHWEST LOWER MICHIGAN

CITY           SKY/WX    TMP DP  RH WIND       PRES   REMARKS
BATTLE CREEK   CLOUDY    37  35  92 S12       29.95R FOG     WCI  29
BENTON HARBOR  CLOUDY    40  38  93 S7        29.92R
BIG RAPIDS     CLOUDY    33  28  85 CALM      29.90R
COLDWATER      LGT RAIN  38  38 100 S3        29.97R
FREMONT        CLOUDY    37  28  70 S3        29.90R
HOLLAND        CLOUDY    39  37  92 S9        29.93R WCI  33
GRAND RAPIDS   CLOUDY    38  35  89 S9        29.92R FOG     WCI  31
IONIA          LGT RAIN  36  35  96 S7        29.93R WCI  31
KALAMAZOO      CLOUDY    38  36  92 S10       29.95R FOG     WCI  31
LUDINGTON      CLOUDY    39  33  78 S3        29.88R
MARSHALL       CLOUDY    38  37  98 S8        29.96R FOG     WCI  32
MOUNT PLEASANT CLOUDY    35  30  83 CALM      29.93R
MUSKEGON       CLOUDY    39  34  82 S15G23    29.92R WCI  31
SOUTH HAVEN    CLOUDY    40  39  94 S5        29.92S
$$
MIZ016>042-191400-
NORTHERN LOWER MICHIGAN

CITY           SKY/WX    TMP DP  RH WIND       PRES   REMARKS
ALPENA         CLOUDY    32  28  85 CALM      29.94R
BEAVER ISLAND  CLOUDY    32  29  88 CALM      29.91S
BELLAIRE       CLOUDY    35  31  86 CALM      29.91S
CADILLAC       CLOUDY    34  30  86 S3        29.88R
CHARLEVOIX     CLOUDY    35  29  80 SE3       29.94R
FRANKFORT      CLOUDY    40  32  70 S3        29.88S
GAYLORD        CLOUDY    30  29  96 S5        29.89R FOG     WCI  25
GRAYLING       CLOUDY    32  29  88 S3        29.90R
HARBOR SPRINGS CLOUDY    33  29  85 CALM      29.92R
HOUGHTON LAKE  CLOUDY    32  28  85 S3        29.91R
MANISTEE       CLOUDY    36  30  79 E5        29.88R WCI  32
OSCODA         CLOUDY    33  27  79 SW5       29.94R WCI  28
PELLSTON       CLOUDY    30  26  85 N5        29.93R WCI  25
ROGERS CITY    CLOUDY    32  28  83 SW6       29.94R WCI  26
TRAVERSE CITY  CLOUDY    38  30  73 SE3       29.88S
$$
MIZ007>008-015-191400-
EASTERN UPPER MICHIGAN

CITY           SKY/WX    TMP DP  RH WIND       PRES   REMARKS
KINROSS        CLOUDY    29  26  89 CALM      29.93R
MACKINAC ISLAN CLOUDY    32  26  78 SE5       29.92R WCI  28
NEWBERRY       CLOUDY    30  28  93 SE3       29.90R
S. S. MARIE    CLOUDY    33  26  75 CALM      29.93R
MUNISING         N/A     31  30  96 N9        29.91R WCI  23
$$
MIZ004>006-011>014-085-191400-
CENTRAL UPPER MICHIGAN

CITY           SKY/WX    TMP DP  RH WIND       PRES   REMARKS
MANISTIQUE     CLOUDY    30  29  95 CALM      29.89S FOG
ESCANABA       CLOUDY    29  29 100 N5        29.90R FOG     WCI  24
MENOMINEE      CLOUDY    30  28  92 CALM      29.90R FOG
SAWYER-GWINN   CLOUDY    23  21  93 N18G24    29.90R FOG     WCI   9
$$
MIZ001>003-009>011-084-191400-
WESTERN UPPER MICHIGAN

CITY           SKY/WX    TMP DP  RH WIND       PRES   REMARKS
IRON MOUNTAIN  CLOUDY    28  24  85 N6        29.87R WCI  22
HOUGHTON       FLURRIES  18  12  77 NE14G22   29.95R WCI   4
COPPER HARBOR    N/A     19  14  81 E18G26    29.99S WCI   4
IRONWOOD       LGT SNOW  16  14  92 NE6       29.95S FOG     WCI   7
$$

ABBREVIATIONS USED IN REMARKS
   TC - TEMPERATURE IN CELSIUS
  WCI - WIND CHILL INDEX
   HX - HEAT INDEX
  VSB - VISIBILITY





USA.gov is the U.S. government's official web portal to all federal, state and local government web resources and services.